Guymon, OK

3:50 AM CST on February 25, 2017 (GMT -0600)
Guymon Municipal

Weather History for KGUY - November, 2012

Change the Weather History Date:

Friday, November 23, 2012

  Actual Average Record
Temperature  
Mean Temperature 42 °F 42 °F  
Max Temperature 54 °F 57 °F 77 °F (2006)
Min Temperature 29 °F 28 °F 13 °F (2007)
Degree Days  
Heating Degree Days 23 23  
Month to date heating degree days 281 410  
Since 1 July heating degree days 589 719  
Cooling Degree Days 0 0  
Month to date cooling degree days 0 0  
Year to date cooling degree days 1917 1481  
Moisture  
Dew Point 15 °F    
Average Humidity 43    
Maximum Humidity 63    
Minimum Humidity 22    
Precipitation  
Precipitation 0.00 in 0.02 in 0.85 in (2004)
Month to date precipitation T 0.44  
Year to date precipitation 10.79 18.57  
Snow  
Snow 0.00 in - - ()
Month to date snowfall 0.0  
Since 1 July snowfall 0.0  
Since 1 September snowfall 0.0  
Snow Depth -    
Sea Level Pressure  
Sea Level Pressure 30.47 in    
Wind  
Wind Speed 6 mph (WNW)    
Max Wind Speed 10 mph    
Max Gust Speed 13 mph    
Visibility 10 miles    
Events      
T = Trace of Precipitation, MM = Missing Value Source: NWS Daily Summary

Daily Weather History Graph

Daily Weather History Graph

Search for Another Location

Airport or City:

Trip Planner

Search our weather history database for the weather conditions in past years. The results will help you decide how hot, cold, wet, or windy it might be!

Date:

Astronomy

Nov. 23, 2012 Rise Set
Actual Time 7:32 AM CST 5:32 PM CST
Civil Twilight 7:04 AM CST 6:00 PM CST
Nautical Twilight 6:32 AM CST 6:32 PM CST
Astronomical Twilight 6:01 AM CST 7:02 PM CST
Moon 2:42 PM CST (11/23) 2:59 AM CST (11/23)
Length of Visible Light 10h 55m
Length of Day
9h 59m
Waxing Gibbous, 80% of the Moon is Illuminated
Nov 23
Waxing Gibbous
Nov 28
Full
Dec 6
Last Quarter
Dec 13
New
Dec 19
First Quarter

Hourly Weather History & Observations

Time (CST) Temp. Windchill Dew Point Humidity Pressure Visibility Wind Dir Wind Speed Gust Speed Precip Events Conditions
12:53 AM 35.1 °F 30.1 °F 23.0 °F 61% 30.40 in 10.0 mi North 5.8 mph - N/A   Clear
1:53 AM 33.1 °F 27.7 °F 21.0 °F 61% 30.41 in 10.0 mi NNW 5.8 mph - N/A   Clear
2:53 AM 30.9 °F 26.2 °F 19.0 °F 61% 30.44 in 10.0 mi NNW 4.6 mph - N/A   Clear
3:53 AM 30.9 °F 24.3 °F 17.1 °F 57% 30.46 in 10.0 mi NNW 6.9 mph - N/A   Clear
4:53 AM 30.9 °F 23.5 °F 15.1 °F 52% 30.47 in 10.0 mi NNW 8.1 mph - N/A   Clear
6:53 AM 30.0 °F 24.1 °F 14.0 °F 51% 30.53 in 10.0 mi NNW 5.8 mph - N/A   Clear
7:53 AM 30.0 °F 24.1 °F 15.1 °F 54% 30.56 in 10.0 mi NNW 5.8 mph - N/A   Clear
8:53 AM 37.0 °F 31.6 °F 15.1 °F 41% 30.57 in 10.0 mi North 6.9 mph - N/A   Clear
9:53 AM 43.0 °F 38.2 °F 15.1 °F 32% 30.57 in 10.0 mi NNE 8.1 mph - N/A   Clear
10:53 AM 48.0 °F - 16.0 °F 28% 30.57 in 10.0 mi NE 6.9 mph - N/A   Clear
11:53 AM 50.0 °F - 16.0 °F 26% 30.55 in 10.0 mi NE 5.8 mph - N/A   Clear
12:53 PM 50.0 °F - 15.1 °F 25% 30.52 in 10.0 mi West 3.5 mph - N/A   Clear
1:53 PM 52.0 °F - 14.0 °F 22% 30.49 in 10.0 mi Calm Calm - N/A   Clear
2:53 PM 52.0 °F - 14.0 °F 22% 30.48 in 10.0 mi SSW 4.6 mph - N/A   Clear
3:53 PM 52.0 °F - 14.0 °F 22% 30.46 in 10.0 mi Variable 3.5 mph - N/A   Clear
4:53 PM 51.1 °F - 14.0 °F 23% 30.45 in 10.0 mi SSW 9.2 mph - N/A   Clear
5:53 PM 46.0 °F 43.9 °F 14.0 °F 28% 30.45 in 10.0 mi South 4.6 mph - N/A   Clear
6:53 PM 39.9 °F 36.7 °F 14.0 °F 35% 30.45 in 10.0 mi South 4.6 mph - N/A   Clear
7:53 PM 35.1 °F 31.0 °F 12.9 °F 40% 30.45 in 10.0 mi SSW 4.6 mph - N/A   Clear
8:53 PM 34.0 °F 26.6 °F 12.9 °F 42% 30.43 in 10.0 mi SSW 9.2 mph - N/A   Clear
9:53 PM 34.0 °F 27.2 °F 12.9 °F 42% 30.39 in 10.0 mi SSW 8.1 mph - N/A   Clear
10:53 PM 32.0 °F 24.8 °F 14.0 °F 48% 30.35 in 10.0 mi SSW 8.1 mph - N/A   Clear
11:53 PM 33.1 °F 26.9 °F 14.0 °F 46% 30.34 in 10.0 mi SSW 6.9 mph - N/A   Clear